Location: Marsån
(66.4167°N, 22.2833°E)
Time: 07:26:32
(UTC+00:00)

Cosmos 1821 Rocket - Pass Details

Date: 24 February 2024
Orbit: 944 x 1004 km, 82.9° (Epoch: 20 April)

Event Time Altitude Azimuth Distance (km) Brightness Sun altitude
Rises 22:56:52 0° 337° (NNW) 3,716 7.9 -32.9°
Reaches altitude 10° 22:59:28 10° 342° (NNW) 2,772 7.1 -32.9°
Maximum altitude 23:05:44 56° 61° (ENE) 1,184 4.5 -32.8°
Enters shadow 23:05:50 56° 64° (ENE) 1,185 4.4 -32.8°
